Weather History for Fort Knox, KY

Change the Weather History Date:

Monday, October 24, 2011

  Actual Average Record
Temperature  
Mean Temperature 58 °F -  
Max Temperature 70 °F 64 °F 80 °F (2000)
Min Temperature 46 °F 44 °F 30 °F (1999)
Degree Days  
Heating Degree Days 6    
Growing Degree Days 8 (Base 50)    
Moisture  
Dew Point 46 °F    
Average Humidity 70    
Maximum Humidity 99    
Minimum Humidity 38    
Precipitation  
Precipitation 0.00 in - - ()
Sea Level Pressure  
Sea Level Pressure 30.11 in    
Wind  
Wind Speed 7 mph (WSW)    
Max Wind Speed 15 mph    
Max Gust Speed 23 mph    
Visibility 10 miles    
Events      
Averages and records for this station are not official NWS values.
T = Trace of Precipitation, MM = Missing Value Source: NWS Daily Summary

Daily Weather History Graph

Daily Weather History Graph

Search for Another Location

Airport:

Trip Planner

Search our weather history database for the weather conditions in past years. The results will help you decide how hot, cold, wet, or windy it might be!

Date:

Astronomy

Oct. 24, 2011 Rise Set
Actual Time 8:00 AM EDT 6:54 PM EDT
Civil Twilight 7:34 AM EDT 7:21 PM EDT
Nautical Twilight 7:03 AM EDT 7:52 PM EDT
Astronomical Twilight 6:32 AM EDT 8:22 PM EDT
Moon 5:20 AM EDT (10/24) 5:17 PM EDT (10/24)
Length of Visible Light 11h 47m
Length of Day
10h 53m
Waning Crescent, 7% of the Moon is Illuminated
Oct 24
Waning Crescent
Oct 26
New
Nov 2
First Quarter
Nov 10
Full
Nov 18
Last Quarter

Hourly Weather History & Observations

Time (EDT) Temp. Dew Point Humidity Pressure Visibility Wind Dir Wind Speed Gust Speed Precip Events Conditions
12:55 AM 49.3 °F 49.1 °F 99% 30.08 in 10.0 mi SSW 5.8 mph - N/A   Partly Cloudy
1:55 AM 49.1 °F 47.1 °F 93% 30.07 in 10.0 mi SW 4.6 mph - N/A   Clear
2:55 AM 49.5 °F 46.6 °F 90% 30.07 in 10.0 mi SSW 6.9 mph - N/A   Clear
3:55 AM 49.6 °F 46.2 °F 88% 30.06 in 10.0 mi SW 5.8 mph - N/A   Clear
4:55 AM 47.5 °F 45.7 °F 93% 30.07 in 10.0 mi SSW 3.5 mph - N/A   Clear
5:55 AM 47.8 °F 44.6 °F 89% 30.06 in 10.0 mi SW 4.6 mph - N/A   Clear
6:55 AM 47.8 °F 44.2 °F 87% 30.07 in 10.0 mi SW 5.8 mph - N/A   Scattered Clouds
7:55 AM 52.2 °F 46.9 °F 82% 30.09 in 10.0 mi WSW 8.1 mph - N/A   Mostly Cloudy
8:55 AM 52.2 °F 47.3 °F 83% 30.10 in 10.0 mi SW 10.4 mph - N/A   Mostly Cloudy
9:55 AM 55.8 °F 48.7 °F 77% 30.11 in 10.0 mi SW 11.5 mph - N/A   Partly Cloudy
10:55 AM 61.2 °F 49.3 °F 65% 30.10 in 10.0 mi SW 15.0 mph - N/A   Partly Cloudy
11:55 AM 65.1 °F 52.0 °F 62% 30.10 in 10.0 mi WSW 15.0 mph 23.0 mph N/A   Partly Cloudy
12:55 PM 66.6 °F 54.0 °F 64% 30.11 in 10.0 mi West 13.8 mph - N/A   Partly Cloudy
1:55 PM 68.5 °F 52.5 °F 57% 30.10 in 10.0 mi West 13.8 mph 20.7 mph N/A   Partly Cloudy
2:55 PM 70.2 °F 50.7 °F 50% 30.09 in 10.0 mi West 13.8 mph - N/A   Partly Cloudy
3:55 PM 70.5 °F 44.4 °F 39% 30.09 in 10.0 mi NNW 15.0 mph - N/A   Clear
4:55 PM 70.3 °F 43.3 °F 38% 30.10 in 10.0 mi NW 10.4 mph - N/A   Clear
5:55 PM 68.0 °F 41.5 °F 38% 30.13 in 10.0 mi WNW 11.5 mph - N/A   Clear
6:55 PM 63.0 °F 41.9 °F 46% 30.15 in 10.0 mi NW 6.9 mph - N/A   Clear
7:55 PM 59.5 °F 41.2 °F 51% 30.17 in 10.0 mi WNW 3.5 mph - N/A   Clear
8:55 PM 53.1 °F 41.7 °F 65% 30.19 in 10.0 mi Calm Calm - N/A   Clear
9:55 PM 53.4 °F 41.5 °F 64% 30.20 in 10.0 mi Calm Calm - N/A   Clear
10:55 PM 48.4 °F 42.4 °F 80% 30.22 in 10.0 mi Calm Calm - N/A   Scattered Clouds
11:55 PM 46.9 °F 42.1 °F 83% 30.22 in 10.0 mi Calm Calm - N/A   Scattered Clouds